This is the latest recevied weather packets stored in our database for station/object WV5G-13. If no packets are shown the sender has not sent any weather packets the latest 10 day(s).
| Time | Temp. | Humidity | Pressure | Rain* | Wind** | Luminosity | Snow |
|---|---|---|---|---|---|---|---|
| 1777679713 | 13.89° C | 58% | 1017 hPa | 0 mm | - | 192 W/m² | - |
| 1777679409 | 13.89° C | 57% | 1017.4 hPa | 0 mm | - | 236 W/m² | - |
| 1777679105 | 13.89° C | 57% | 1017.1 hPa | 0 mm | - | 283 W/m² | - |
| 1777678803 | 13.89° C | 56% | 1017.1 hPa | 0 mm | - | 260 W/m² | - |
| 1777678501 | 13.33° C | 59% | 1016.9 hPa | 0 mm | - | 278 W/m² | - |
| 1777678197 | 12.78° C | 60% | 1017 hPa | 0 mm | - | 144 W/m² | - |
| 1777677894 | 12.78° C | 59% | 1017.1 hPa | 0 mm | - | 114 W/m² | - |
| 1777677591 | 12.78° C | 58% | 1017.2 hPa | 0 mm | - | 170 W/m² | - |
| 1777677289 | 13.33° C | 57% | 1017.2 hPa | 0 mm | - | 364 W/m² | - |
| 1777676987 | 12.78° C | 60% | 1017.2 hPa | 0 mm | - | 341 W/m² | - |
| 1777676686 | 12.78° C | 61% | 1017.2 hPa | 0 mm | - | 272 W/m² | - |
| 1777676383 | 12.78° C | 62% | 1017.6 hPa | 0 mm | - | 313 W/m² | - |
| 1777676081 | 12.78° C | 63% | 1017.4 hPa | 0 mm | - | 343 W/m² | - |
| 1777675776 | 12.22° C | 64% | 1017.6 hPa | 0 mm | - | 242 W/m² | - |
| 1777675474 | 12.22° C | 65% | 1017.2 hPa | 0 mm | - | 221 W/m² | - |
| 1777675171 | 12.22° C | 65% | 1017.1 hPa | 0 mm | - | 270 W/m² | - |
| 1777674867 | 12.22° C | 67% | 1017.2 hPa | 0 mm | - | 224 W/m² | - |
| 1777674563 | 12.22° C | 66% | 1017.5 hPa | 0 mm | - | 218 W/m² | - |
| 1777674261 | 12.22° C | 66% | 1017.5 hPa | 0 mm | - | 245 W/m² | - |
| 1777673957 | 11.67° C | 66% | 1017.5 hPa | 0 mm | - | 245 W/m² | - |
| 1777673654 | 11.67° C | 67% | 1017.5 hPa | 0 mm | - | 221 W/m² | - |
| 1777673352 | 12.22° C | 67% | 1017.2 hPa | 0 mm | - | 249 W/m² | - |
| 1777673049 | 12.22° C | 67% | 1017.2 hPa | 0 mm | - | 312 W/m² | - |
| 1777672745 | 11.67° C | 69% | 1017.2 hPa | 0 mm | - | 291 W/m² | - |
| 1777672442 | 11.67° C | 69% | 1017.1 hPa | 0 mm | - | 247 W/m² | - |
* Rain latest hour (hover to see other rain measurements)
** Current wind speed in m/s (hover to see current wind gust speed)